GEFSMA_500_meanwind_108.txt.gz
Wind_Speed
16 17 17 17 17 17 18 18 17 17 17 18 18 18 20 21 22 23 24 24 25 25 23 22 21 20 20 19 18 18 18 17 16 15 14 14 13 13 12 11 11 11 11
16 17 17 18 17 17 18 18 17 17 16 16 17 18 19 21 23 24 24 25 26 26 25 23 22 21 21 21 20 19 19 18 18 17 16 15 14 13 13 12 11 11 11
17 17 17 18 17 18 18 18 17 16 15 15 16 18 19 21 23 24 25 26 26 27 26 25 23 22 22 22 21 20 20 19 19 19 18 17 15 14 13 12 12 12 11
17 17 17 18 18 18 18 17 16 15 15 15 15 17 19 21 23 25 25 26 27 27 27 26 25 23 22 23 22 21 21 20 20 20 19 18 17 15 14 13 12 12 11
18 17 18 18 18 19 18 16 15 14 13 13 13 15 17 20 22 25 25 26 27 27 26 26 26 24 23 23 22 22 23 22 21 21 20 19 18 16 15 15 13 13 12
18 18 18 18 19 19 17 14 13 12 11 11 12 13 15 18 22 24 26 26 26 27 27 26 25 24 23 23 22 23 23 23 22 22 21 20 19 17 17 16 15 14 13
19 19 18 19 18 18 16 13 11 10 9 9 10 12 14 16 20 23 26 26 26 27 27 27 26 25 24 23 23 23 22 22 22 23 22 21 20 19 18 17 17 16 15
20 20 18 18 18 17 15 13 11 9 7 7 8 10 13 15 19 22 24 25 25 26 27 27 26 25 25 24 22 22 22 23 23 23 22 21 20 20 19 19 18 17 17
20 20 19 18 17 16 15 13 10 8 6 5 7 9 11 14 18 20 22 24 25 26 27 28 27 26 25 24 24 23 23 23 23 23 22 22 21 20 20 20 20 19 18
20 20 19 18 17 16 15 12 9 7 5 4 5 7 9 12 16 18 21 23 24 25 26 27 27 26 26 24 24 24 23 24 24 23 23 22 22 21 21 21 21 20 20
19 20 19 18 17 17 15 12 9 6 4 2 3 5 8 11 14 16 19 22 23 24 25 27 27 26 25 25 24 24 24 24 24 24 23 22 22 21 21 21 21 21 21
19 19 19 18 18 17 15 12 9 7 4 2 2 4 7 9 12 15 18 20 22 23 24 27 27 26 25 25 25 25 25 25 25 25 23 22 22 21 22 23 22 22 22
18 19 19 18 17 17 15 12 9 7 5 2 1 3 5 8 11 14 17 19 20 22 23 25 26 26 25 25 26 24 25 25 25 25 24 23 22 22 22 24 23 23 24
18 18 18 17 16 16 15 12 10 7 6 3 1 2 4 7 10 13 15 18 19 21 22 23 24 24 24 25 25 24 25 26 26 25 25 25 24 23 23 24 25 24 25
17 17 17 17 16 15 14 13 10 8 6 4 2 2 4 6 8 11 14 16 17 19 22 22 23 23 24 24 25 24 25 26 26 26 26 26 25 24 25 25 25 26 26
17 17 17 16 16 15 14 13 11 8 7 5 2 2 3 4 7 9 12 14 16 17 19 22 22 23 23 24 25 25 25 26 27 28 28 27 27 26 26 26 27 27 27
17 17 17 16 16 15 14 12 11 10 8 6 4 3 4 5 6 8 10 13 15 17 17 19 20 21 22 23 24 26 26 26 27 28 28 28 28 28 28 28 28 29 29
18 18 17 17 16 15 14 12 11 10 9 7 5 4 5 6 7 8 10 12 14 15 16 17 18 20 21 22 24 25 25 26 26 27 28 28 28 28 29 29 29 30 29
19 18 18 17 17 15 14 13 11 10 9 8 7 6 6 7 8 9 10 12 13 14 15 16 17 19 20 21 22 23 24 26 26 27 28 28 28 28 28 28 28 29 29
20 20 19 19 18 17 15 14 13 11 10 9 9 8 7 8 9 10 12 13 13 14 15 16 17 17 18 20 21 22 22 24 25 25 26 27 28 28 28 27 28 28 29
22 22 21 20 19 19 17 16 15 13 12 11 11 10 9 9 10 12 13 14 14 15 16 16 17 17 18 19 20 20 22 23 24 24 25 27 27 28 28 28 29 29 30
24 24 23 22 21 20 20 19 17 16 15 14 13 13 13 12 12 12 13 14 15 16 17 17 17 18 18 18 19 20 21 22 23 24 24 25 26 27 28 29 29 29 31
26 26 25 25 24 23 22 21 20 19 18 17 16 16 15 15 15 15 15 16 16 17 18 19 19 19 19 19 20 21 21 22 22 23 23 24 25 26 27 27 28 28 29
29 28 28 28 27 27 26 24 23 22 21 20 20 19 18 18 18 17 17 17 18 18 19 18 19 19 20 20 20 21 22 22 23 22 23 23 23 24 25 26 26 26 26
32 32 31 31 30 29 29 28 27 26 25 24 23 22 21 21 20 20 20 20 19 20 20 20 20 19 19 19 19 20 21 23 23 23 23 23 23 24 24 25 26 25 25
36 35 34 34 33 32 32 31 31 29 28 28 26 25 25 24 24 23 23 22 22 21 21 21 21 21 21 20 20 20 20 21 22 23 23 23 23 24 23 24 24 25 25

GEFSMA_500_meanwind_114.txt.gz
Wind_Speed
19 19 19 18 18 17 17 17 17 17 17 16 16 15 16 17 18 20 21 22 22 21 21 21 20 19 17 16 17 16 15 14 14 14 13 12 12 11 11 11 11 11 11
20 20 19 18 18 17 18 18 18 17 16 16 15 15 15 17 18 20 21 23 23 22 22 22 21 20 18 17 17 17 16 15 16 14 13 13 13 12 11 10 11 11 11
20 20 19 19 18 18 19 19 18 16 15 15 14 15 15 15 17 19 21 23 23 23 22 22 22 21 20 19 19 18 17 16 16 16 14 14 13 13 12 11 11 11 11
20 20 20 20 19 19 19 19 18 16 14 14 13 13 14 15 16 18 20 23 23 23 22 23 23 22 21 20 19 19 18 17 17 17 16 15 14 14 13 12 11 11 11
20 20 20 21 21 20 19 18 17 16 14 13 12 11 12 14 15 17 20 22 23 22 22 22 23 23 22 20 20 20 19 19 18 18 17 16 16 15 14 13 12 11 11
20 21 21 22 21 21 20 18 17 15 14 12 11 10 10 12 14 16 19 21 22 22 22 23 23 23 24 21 20 20 20 21 20 19 19 18 18 16 15 14 12 12 11
20 21 22 22 22 21 21 19 16 15 13 11 9 9 8 10 12 14 17 19 21 22 22 22 23 23 24 22 21 20 21 21 21 21 20 20 19 18 17 15 13 12 12
19 20 22 22 22 22 21 19 17 14 13 11 8 7 7 8 10 12 15 17 19 21 22 22 23 23 24 23 22 21 21 21 22 22 21 21 20 20 18 17 15 14 13
20 21 22 22 21 22 21 20 17 14 12 10 8 6 6 7 9 11 13 15 17 20 21 22 23 23 23 23 23 23 22 22 23 23 23 22 21 20 19 18 17 16 15
20 21 22 22 22 22 22 20 18 15 12 9 7 5 4 5 7 9 12 14 16 19 20 21 22 22 22 23 23 22 22 22 24 24 23 23 23 21 20 20 19 18 17
19 20 21 21 21 22 21 20 18 15 12 9 7 5 4 4 6 8 11 13 16 18 19 20 21 21 21 23 23 22 22 22 24 24 23 23 23 23 21 21 20 19 19
19 20 21 21 21 21 21 20 18 16 13 10 8 5 3 3 4 6 9 12 14 17 18 20 20 21 22 22 23 22 22 22 23 24 24 23 23 23 23 22 22 20 20
19 19 20 20 20 20 20 19 18 16 14 11 9 7 5 3 3 5 7 10 12 15 17 19 20 20 22 23 23 23 23 22 23 23 24 24 24 24 23 23 22 22 21
20 20 20 20 20 19 19 18 17 16 14 13 11 8 6 4 3 4 6 9 11 13 16 17 19 20 21 22 24 24 23 22 22 23 24 24 24 24 24 23 23 22 22
20 20 20 20 20 19 18 18 17 16 14 12 11 9 7 5 4 5 7 8 10 12 14 16 18 20 21 22 23 24 24 23 23 23 24 24 24 24 25 24 24 23 23
21 21 21 20 20 19 18 17 16 16 15 13 11 10 8 6 5 5 6 8 10 12 13 15 16 18 20 21 22 23 24 23 23 23 24 25 25 25 25 25 25 25 24
21 21 21 21 21 20 19 18 16 15 14 13 12 11 9 8 6 6 7 8 9 11 13 14 15 18 19 21 22 23 23 24 24 24 24 25 26 26 26 26 26 26 26
22 22 22 22 21 21 20 19 18 16 15 14 13 12 10 9 8 8 8 9 10 11 12 14 15 17 19 21 22 23 23 25 25 25 26 26 27 28 28 27 28 28 27
24 23 23 23 22 21 21 20 19 17 16 15 14 13 11 11 10 9 9 10 10 12 13 14 15 17 18 20 21 23 23 24 26 26 27 27 27 28 29 29 29 29 29
25 25 25 25 24 22 22 21 20 19 18 17 16 15 13 13 12 12 12 12 12 12 13 14 16 17 19 21 22 23 24 24 26 26 27 27 28 28 29 29 29 29 29
26 27 27 26 26 24 23 23 22 21 20 19 18 17 16 15 14 14 13 13 14 14 14 15 17 18 19 21 21 23 24 25 26 27 27 28 28 28 28 29 29 29 29
28 28 28 28 27 26 25 25 24 24 22 21 20 19 19 18 17 17 16 16 16 17 17 18 18 19 20 21 22 22 24 25 26 27 27 28 28 28 28 28 29 29 30
29 29 30 30 30 29 27 26 26 26 25 24 23 22 21 20 20 20 20 19 19 19 20 20 20 21 21 22 22 23 24 25 25 26 27 27 27 27 28 27 27 28 29
31 32 32 32 32 32 31 29 29 28 28 28 27 26 25 24 23 23 23 23 22 22 22 22 23 23 22 23 23 24 24 25 25 26 26 27 27 27 27 27 28 28 28
33 34 34 35 34 33 33 32 32 31 31 31 31 30 29 28 27 26 26 25 25 25 25 25 25 25 25 25 25 25 26 26 26 27 27 27 27 27 27 27 28 28 28
36 37 37 37 36 36 35 35 35 34 34 33 33 33 33 31 31 30 30 29 28 28 28 27 27 27 27 27 27 27 27 27 27 27 27 27 28 28 28 28 28 28 28

GEFSMA_500_meanwind_120.txt.gz
Wind_Speed
14 14 14 15 15 15 15 15 15 14 14 14 13 13 14 13 14 15 16 16 17 17 17 16 16 15 15 14 14 13 12 12 11 11 12 12 14 14 14 14 14 14 15
15 15 15 15 15 15 15 16 15 14 13 12 12 12 12 13 14 14 16 17 17 18 18 17 18 17 16 15 15 15 14 13 13 13 13 13 13 13 13 13 13 14 15
15 15 15 16 17 16 16 16 14 14 12 11 10 10 10 12 12 14 16 17 18 19 19 19 18 18 17 17 16 16 15 15 15 15 15 15 14 14 14 14 13 14 14
15 16 16 17 17 17 17 16 14 13 11 10 9 9 9 11 12 13 15 16 18 19 20 20 19 19 18 18 17 17 16 17 17 17 16 15 16 15 15 14 14 14 14
15 16 17 18 18 18 18 16 14 12 11 9 8 8 8 9 11 12 14 16 17 19 20 20 20 20 20 19 18 18 18 18 18 18 17 16 16 16 15 15 15 15 14
16 17 18 18 19 18 17 16 14 12 10 9 7 6 6 7 8 10 13 15 16 18 20 20 20 20 21 20 19 19 19 19 19 19 18 18 17 16 16 15 15 15 15
16 18 18 19 19 18 17 16 14 12 10 9 7 5 4 5 6 9 11 14 16 17 19 20 21 21 21 21 20 20 20 21 20 20 19 19 18 17 17 16 15 15 15
16 18 19 19 18 18 17 16 15 13 11 9 7 5 3 3 5 7 10 12 15 17 18 20 21 21 22 22 21 21 22 21 21 21 20 20 19 18 17 17 16 16 16
16 17 19 19 18 18 17 17 16 14 11 9 7 5 3 2 2 5 8 11 13 15 17 20 20 21 22 23 23 22 22 22 22 21 21 20 20 20 18 18 17 17 17
17 18 18 19 19 18 18 17 16 14 12 9 7 5 3 2 1 4 6 9 11 14 16 19 20 20 22 23 24 23 23 23 22 22 22 22 21 21 21 20 19 18 18
17 18 19 19 19 19 19 18 17 14 12 10 8 6 5 3 0 3 6 8 10 13 14 17 19 20 21 22 23 23 24 23 23 23 23 23 22 22 22 21 21 20 20
17 17 18 18 18 18 19 18 17 15 13 11 9 7 5 3 1 2 4 6 9 11 14 16 18 19 21 22 22 23 24 23 23 24 24 24 23 23 23 23 22 22 21
17 18 18 19 18 18 18 18 18 17 14 12 10 8 6 4 2 1 2 4 7 9 12 15 18 19 20 21 22 23 24 24 24 24 24 25 25 24 23 24 24 23 23
17 18 19 19 19 18 18 18 18 17 16 14 12 9 7 5 3 1 1 3 5 8 11 13 16 18 19 19 21 23 24 25 24 24 24 24 25 25 25 25 24 24 24
17 18 19 19 19 19 18 18 17 17 16 14 12 10 8 6 4 2 2 3 5 7 9 12 14 16 17 18 20 22 23 24 24 24 25 25 25 25 25 25 25 25 26
17 17 18 19 20 20 20 19 18 17 16 15 13 11 9 7 5 4 3 4 5 6 8 11 13 15 18 19 21 23 23 24 25 24 26 26 26 26 26 26 26 26 27
17 18 18 19 20 20 21 20 20 18 17 15 14 12 10 9 7 6 5 5 6 7 8 10 13 15 17 18 21 23 23 24 25 25 26 27 27 27 27 28 28 27 27
16 18 19 19 20 21 21 21 21 20 18 17 15 14 12 11 9 8 7 7 8 8 9 10 12 14 16 18 20 22 24 25 26 26 27 28 27 28 28 28 29 29 28
17 18 19 19 20 21 22 22 22 21 20 18 16 15 14 13 12 11 10 10 10 10 11 12 13 15 17 18 20 21 23 25 26 27 28 29 29 28 29 29 30 30 30
17 18 19 20 21 21 22 23 23 23 22 20 19 17 16 16 15 14 13 12 12 12 13 14 15 16 18 19 21 22 23 25 26 27 29 30 30 30 29 30 31 31 31
18 19 20 21 22 23 24 24 24 24 23 22 21 20 19 18 18 17 16 16 15 15 15 16 17 18 19 20 21 23 24 25 26 28 29 31 32 32 32 32 32 32 32
19 20 21 22 24 25 26 27 27 26 26 25 25 23 22 21 20 20 20 19 19 19 18 18 19 21 21 22 22 24 25 26 28 29 30 31 33 33 35 35 34 34 34
21 22 23 25 26 27 28 29 29 29 29 29 28 27 25 24 24 23 23 22 21 21 22 22 22 23 24 25 25 26 26 27 29 31 32 32 33 33 35 35 36 35 35
23 24 26 27 29 30 31 31 31 32 32 32 32 30 29 27 26 26 26 26 25 25 25 25 25 25 26 27 28 29 29 30 31 32 32 33 34 35 35 36 36 37 36
26 27 28 30 31 32 33 34 34 35 35 35 35 34 32 30 28 28 29 30 30 30 29 29 29 29 29 29 30 32 32 32 32 33 34 34 35 35 36 36 36 36 36
29 31 32 33 35 36 37 37 38 38 38 38 38 38 36 34 33 32 32 33 34 34 34 33 33 33 33 33 33 34 34 34 34 34 35 36 36 36 36 36 36 36 36

GEFSMA_500_meanwind_126.txt.gz
Wind_Speed
14 14 13 14 14 14 14 13 13 12 11 10 9 9 10 10 11 11 12 13 14 14 14 14 14 14 13 13 13 13 11 10 9 10 10 12 13 14 16 17 16 16 15
14 14 15 15 15 15 14 14 13 12 10 9 8 8 8 9 10 10 12 13 14 14 15 15 15 15 14 14 14 14 13 11 11 11 11 12 14 15 16 16 16 16 15
15 15 16 16 16 16 15 15 13 12 10 9 7 7 7 7 9 10 11 13 14 15 16 16 16 16 15 15 15 15 14 13 13 13 13 14 14 15 15 15 15 16 15
15 16 16 17 17 16 15 15 13 12 11 9 7 6 6 6 7 9 11 12 14 14 15 16 17 17 16 16 16 16 15 14 14 14 14 15 15 15 15 14 14 15 14
16 16 17 17 17 17 16 15 13 12 11 9 7 5 4 4 5 7 9 11 13 14 15 16 17 17 17 17 17 17 17 15 16 15 15 16 16 15 15 14 14 14 14
16 17 18 18 18 18 17 15 14 12 11 9 8 6 4 3 3 5 7 10 12 14 15 16 17 18 19 18 18 18 18 17 17 17 17 17 17 16 15 14 14 14 14
16 18 19 19 19 18 17 16 14 13 12 10 9 7 5 3 2 4 6 8 11 13 15 16 17 18 19 19 19 18 18 18 18 18 18 18 18 17 16 15 15 15 14
17 18 19 20 20 18 17 17 15 14 13 11 9 8 6 3 1 1 4 7 10 12 14 15 17 18 19 19 20 19 19 19 19 19 19 19 19 18 17 17 16 16 15
18 19 19 20 20 19 18 18 16 15 14 12 11 10 8 5 3 1 2 4 8 10 12 14 16 18 19 19 20 20 19 19 21 21 20 20 19 19 18 18 17 17 16
18 19 20 20 20 20 19 19 17 16 15 13 12 11 9 7 5 2 1 2 6 8 11 13 15 17 19 20 20 21 21 20 21 22 22 22 21 20 19 19 19 19 18
17 18 19 20 20 20 20 20 19 18 16 14 13 12 11 9 7 4 2 1 3 6 9 11 14 17 19 19 21 21 21 22 22 22 22 23 22 22 21 21 21 21 20
17 18 19 20 20 20 20 21 20 19 18 16 14 13 11 10 8 6 3 1 1 4 7 9 12 15 17 19 20 21 22 23 23 23 23 23 23 23 23 23 22 22 21
16 17 18 19 19 19 20 20 20 20 19 17 15 14 13 11 9 7 4 2 2 3 5 8 11 13 16 18 20 21 22 23 23 24 24 24 24 24 24 24 24 23 23
16 16 17 18 19 19 19 20 20 20 20 19 17 16 14 13 11 9 7 4 3 3 4 6 9 12 15 17 19 20 22 23 23 24 24 24 24 25 24 25 25 25 24
15 16 16 17 18 18 19 19 19 20 20 19 18 17 16 15 13 11 9 7 6 5 5 5 7 10 13 16 18 19 21 23 24 25 25 26 26 26 25 25 26 25 25
14 15 16 17 17 18 18 19 19 19 19 19 18 18 17 16 14 12 11 10 8 7 6 7 8 10 13 15 17 19 21 22 23 25 26 26 26 27 27 26 27 27 27
13 14 15 16 17 17 18 19 19 19 19 19 18 18 17 17 15 14 12 11 11 10 8 8 10 11 12 15 17 18 20 22 24 25 26 27 28 28 28 28 28 28 28
12 13 15 15 16 17 18 18 18 19 19 19 19 19 18 18 17 15 14 14 13 12 11 10 11 12 13 15 17 18 20 22 24 25 26 27 28 29 30 30 30 30 30
12 13 14 15 16 17 18 18 19 19 19 19 20 20 20 19 18 17 17 16 16 15 14 13 12 13 14 15 17 19 20 22 24 25 27 28 29 30 31 32 32 32 32
13 14 15 15 16 17 18 18 19 20 20 20 21 21 21 21 20 20 19 19 18 17 17 16 15 15 16 17 19 20 21 22 24 26 27 29 30 31 32 33 33 34 34
15 15 16 16 17 17 18 19 20 21 21 22 23 23 23 23 23 23 22 22 21 20 19 18 18 17 18 19 20 22 23 24 25 27 28 29 30 32 33 35 35 36 36
17 17 17 18 18 19 20 21 22 23 23 24 25 25 25 25 25 25 25 25 24 23 22 21 21 20 21 21 22 23 25 26 28 29 30 31 32 33 34 35 36 36 37
19 19 20 20 21 22 23 23 24 24 26 27 27 28 28 28 28 28 28 28 27 26 26 25 24 24 25 25 25 26 27 28 29 30 32 33 34 36 37 38 38 38 38
21 22 23 23 24 25 25 26 27 27 29 30 31 31 31 31 32 32 31 31 30 30 29 29 28 28 28 29 29 30 30 31 31 33 34 35 37 38 39 40 40 40 40
23 24 25 26 26 27 28 29 30 31 32 33 35 35 35 35 35 35 35 34 33 33 33 32 31 31 32 32 32 33 34 34 35 35 36 37 39 40 41 41 42 42 42
26 27 28 29 29 30 31 32 33 34 35 37 38 38 39 39 39 39 39 38 37 37 37 37 36 35 35 36 36 37 37 38 38 38 39 40 41 42 42 42 43 44 44

GEFSMA_500_meanwind_132.txt.gz
Wind_Speed
13 13 13 12 12 11 10 9 8 7 6 5 5 6 7 8 10 11 12 12 12 13 14 14 15 15 15 14 13 13 13 13 13 14 14 14 14 15 16 17 16 16 16
13 13 12 12 12 11 10 10 9 7 6 4 4 4 5 7 9 10 11 12 12 13 14 15 15 15 15 15 14 14 13 14 14 14 14 15 15 14 15 16 17 17 17
14 13 12 13 13 12 11 11 9 7 5 4 3 3 4 5 7 9 10 11 12 13 14 14 15 15 15 15 15 14 14 14 14 14 14 14 14 13 14 16 18 18 18
14 13 13 13 13 13 12 11 10 8 6 4 3 2 2 3 6 8 9 11 11 12 13 15 15 15 14 15 15 14 14 14 14 13 14 14 14 14 15 16 17 18 17
14 14 14 14 14 14 13 12 11 9 7 6 5 3 1 1 4 6 8 9 10 11 13 14 14 15 15 15 14 14 14 15 15 14 15 15 15 14 15 16 16 17 17
14 15 15 15 15 14 14 13 12 11 10 8 6 4 3 3 3 4 6 8 9 10 12 13 14 14 15 15 15 14 15 16 16 16 16 16 15 15 15 15 16 17 17
15 16 16 16 16 15 14 14 13 12 11 10 8 7 5 5 4 3 4 6 8 10 11 12 14 14 15 16 16 15 15 16 17 17 17 17 16 16 16 16 16 17 16
16 16 17 16 16 16 15 15 14 13 13 11 10 9 7 7 6 5 4 5 7 8 10 11 12 14 15 16 17 17 16 17 18 18 18 18 17 16 16 16 16 16 16
15 16 16 17 16 16 16 16 15 14 13 12 12 11 9 8 7 6 5 4 5 6 7 9 11 12 13 15 17 17 16 17 18 18 18 18 18 17 17 17 17 16 16
15 16 16 16 17 16 17 16 16 15 14 14 13 13 11 10 8 6 5 4 3 3 5 7 9 11 12 14 16 17 17 17 17 19 19 19 19 18 18 18 18 17 16
14 15 16 16 17 16 17 16 16 15 14 14 13 13 12 11 10 8 6 5 3 1 2 5 7 9 11 14 15 16 17 17 17 18 19 21 21 20 19 18 19 19 18
13 14 15 16 16 16 16 16 15 15 14 13 13 13 12 11 10 9 8 6 4 2 0 2 5 8 10 13 14 15 16 17 18 19 19 20 22 22 21 20 21 21 20
13 14 14 15 15 16 16 15 15 15 14 13 13 12 12 12 11 10 9 7 6 4 2 2 3 6 8 11 13 15 16 17 18 19 20 20 22 23 22 22 22 22 22
12 13 13 14 14 15 15 15 15 15 14 13 13 12 12 12 11 11 10 9 8 6 5 3 3 4 7 10 12 14 16 17 18 19 20 21 22 24 24 24 24 24 24
11 12 13 13 14 14 14 14 14 14 13 13 12 11 11 11 11 11 10 9 9 8 6 5 4 5 6 8 11 13 15 17 18 18 20 22 23 24 25 26 25 25 26
10 11 12 12 13 13 13 13 13 13 12 12 12 11 11 11 10 10 10 10 9 8 6 6 5 5 5 6 10 13 15 17 18 19 21 22 24 25 26 27 28 28 27
9 9 10 11 12 12 12 12 12 12 12 11 11 11 11 11 11 11 11 11 11 10 8 7 7 7 7 8 10 13 15 18 19 20 22 23 25 26 27 27 28 29 29
8 9 9 10 11 12 12 12 12 12 12 11 11 11 11 11 11 12 12 12 12 11 10 9 9 9 10 10 11 13 15 18 20 21 22 24 26 27 29 29 29 30 31
8 9 9 10 10 11 11 11 12 12 12 12 12 12 12 12 12 13 14 14 13 13 12 11 11 12 12 13 14 15 16 18 20 22 23 25 26 27 28 30 31 31 32
8 9 10 10 11 11 12 12 12 12 12 13 13 13 14 14 14 15 16 16 15 15 15 14 15 15 16 17 17 18 19 20 21 22 23 25 26 28 29 31 32 32 33
10 10 11 11 12 12 13 13 14 14 14 14 15 15 16 16 17 17 18 18 18 18 18 18 18 19 20 20 20 21 21 22 23 24 25 26 28 29 30 31 33 34 34
12 12 12 13 14 14 15 15 16 16 16 17 17 18 19 20 20 20 21 21 21 21 22 22 22 23 23 24 24 24 25 26 26 27 27 28 29 31 32 33 34 35 35
13 14 14 15 16 16 17 17 18 18 19 20 21 21 22 23 24 24 24 24 25 26 26 26 27 27 27 28 28 28 29 29 30 30 31 31 32 33 34 35 36 37 38
15 16 16 17 18 19 19 20 20 21 22 22 23 24 25 26 27 27 27 28 29 30 30 30 30 30 31 31 32 32 32 33 33 33 35 35 36 36 37 38 39 40 40
17 18 19 20 21 21 22 22 23 24 25 25 26 27 28 29 30 30 31 32 33 33 33 34 33 33 34 35 35 35 35 36 36 37 38 39 39 40 40 41 42 43 43
20 21 21 22 23 23 24 25 26 27 27 28 29 30 31 32 33 33 35 36 36 37 37 37 37 38 38 39 39 40 39 40 40 40 42 43 44 44 44 44 45 46 47

GEFSMA_500_meanwind_138.txt.gz
Wind_Speed
13 12 12 12 12 10 9 8 7 5 4 4 4 5 6 6 7 8 8 9 10 9 10 10 10 10 10 9 10 10 10 10 10 11 11 11 13 14 13 13 11 10 11
13 13 12 12 12 11 10 8 7 5 4 3 2 3 4 5 6 6 7 8 9 9 9 9 10 10 9 9 9 10 10 9 9 10 10 10 12 13 13 12 12 11 10
14 14 13 13 12 12 11 9 8 6 4 3 2 1 2 3 5 5 6 7 8 8 8 9 10 10 10 9 9 9 10 9 10 10 10 11 12 13 12 12 12 11 11
15 14 14 14 13 13 12 11 9 7 6 5 3 2 1 2 3 4 5 5 6 7 7 8 8 9 9 9 9 9 10 9 10 11 12 12 12 12 11 12 12 12 11
15 15 15 15 15 15 14 12 11 9 8 7 5 4 3 3 3 4 4 4 4 5 6 7 7 7 8 8 9 9 8 9 9 11 13 13 13 12 11 11 13 13 13
15 15 15 15 16 16 15 14 13 11 10 9 8 7 6 5 4 4 3 3 3 4 5 6 6 6 6 7 9 8 9 8 9 11 12 13 12 12 11 11 12 14 14
15 15 15 15 15 16 15 15 14 13 12 11 10 9 8 7 6 4 3 3 3 4 4 3 4 5 4 5 6 7 7 8 8 9 10 11 11 10 10 11 11 13 14
15 15 16 16 15 15 15 15 14 13 13 12 12 11 9 8 7 6 5 4 4 3 3 2 2 3 3 4 5 6 7 8 8 9 9 9 9 9 10 11 11 13 15
15 15 16 16 15 15 15 15 14 14 13 13 12 12 10 9 8 7 6 5 4 3 2 1 1 2 3 3 4 5 6 8 9 10 9 10 10 10 10 12 13 14 15
14 15 16 16 16 15 15 14 15 14 14 13 13 12 11 10 9 8 7 6 6 5 3 2 1 1 1 3 4 5 6 7 8 10 10 10 10 11 12 13 13 13 14
14 15 16 16 16 15 15 14 14 14 13 13 12 12 11 10 10 9 8 7 6 6 4 3 2 1 1 1 3 5 6 6 7 8 10 10 11 11 13 14 14 14 14
13 14 15 16 16 16 15 15 14 13 13 12 12 11 11 10 10 9 8 7 7 6 5 4 3 2 2 2 3 4 6 7 8 8 9 10 11 12 14 14 15 14 15
12 13 14 15 15 15 15 15 14 13 13 13 12 11 10 10 10 9 9 8 7 7 6 5 4 3 3 3 3 4 5 7 8 9 10 12 12 13 14 15 16 16 16
11 12 12 13 14 14 14 14 14 13 12 12 12 11 11 10 10 10 9 8 8 7 7 6 6 5 4 4 4 4 5 6 8 9 11 12 14 15 16 17 17 18 19
10 11 12 12 13 13 13 13 13 13 12 12 11 11 11 10 10 10 9 8 7 7 7 7 7 6 5 5 5 6 6 7 8 9 10 12 14 15 16 18 19 19 20
8 9 10 11 12 12 12 12 12 12 12 11 11 10 10 10 10 10 9 9 9 8 8 8 8 8 7 7 7 7 7 8 9 10 11 12 13 15 16 17 19 20 22
7 8 9 10 11 11 12 12 12 12 12 11 11 10 10 10 10 10 10 10 10 10 10 10 9 9 9 9 9 9 10 11 12 13 14 14 15 16 18 19 20 21 22
6 8 9 10 10 10 11 11 11 12 12 12 11 11 11 11 11 11 11 11 12 12 11 11 11 11 11 11 11 12 12 13 14 15 16 17 18 18 19 20 21 22 23
6 7 9 10 10 10 11 11 11 11 12 12 12 12 12 12 13 13 13 13 13 13 13 13 13 13 13 13 13 14 15 16 16 17 18 19 20 20 21 22 23 24 25
6 7 8 9 10 11 11 11 12 12 13 13 13 13 13 14 14 14 14 15 15 16 16 16 16 16 16 17 17 17 17 18 19 21 21 22 23 23 24 25 25 26 27
7 8 8 9 10 11 12 12 13 13 14 14 14 15 15 16 16 16 16 17 18 18 18 18 19 19 19 19 20 20 21 22 23 24 25 25 26 26 27 28 28 28 29
8 9 9 10 11 12 13 13 14 15 15 16 16 16 17 18 18 19 19 20 20 20 21 21 22 22 22 23 23 24 25 26 26 27 28 29 29 29 29 30 31 31 31
10 10 11 11 12 13 14 15 16 17 17 18 18 18 19 20 20 21 21 22 23 23 24 24 24 24 25 26 27 28 29 30 31 31 32 33 33 33 33 33 34 34 34
12 12 13 14 14 15 16 17 18 18 19 19 20 20 21 22 23 23 24 25 26 26 27 27 28 28 29 30 30 32 33 34 34 35 36 37 36 37 37 37 38 38 38
14 15 15 16 17 17 18 18 19 20 21 22 22 23 23 24 25 26 26 27 28 29 30 30 31 32 33 33 35 36 37 38 38 38 40 41 41 41 41 41 42 43 43
16 17 17 18 19 19 20 21 21 22 23 24 24 25 26 27 28 28 29 29 30 32 33 33 34 36 36 37 38 40 40 41 41 41 43 44 45 45 44 44 46 47 47

GEFSMA_500_meanwind_144.txt.gz
Wind_Speed
12 12 12 11 10 9 8 7 5 3 2 2 3 4 5 6 7 8 8 8 8 8 8 8 8 8 8 8 9 10 10 11 11 12 11 11 11 10 10 10 9 9 7
13 13 13 13 12 11 9 7 5 4 1 1 2 3 4 5 6 7 7 7 7 7 7 7 7 8 8 8 8 9 10 11 11 11 12 11 12 11 11 11 11 10 9
14 14 14 14 14 12 11 9 7 5 4 3 2 2 3 5 5 6 7 6 6 6 6 6 7 7 7 8 7 8 9 10 10 11 12 12 12 12 12 12 12 11 10
15 15 15 15 15 14 13 11 9 8 6 5 4 4 5 5 6 6 6 6 6 6 6 6 6 7 7 7 7 7 8 9 9 10 10 11 11 12 13 12 12 12 10
15 15 15 15 16 15 14 13 11 10 9 7 7 6 6 6 6 6 6 6 6 6 5 6 6 6 6 6 6 6 7 8 9 9 10 10 11 12 13 13 13 12 11
15 16 16 16 16 15 15 14 13 12 11 10 9 8 7 7 7 6 6 5 5 5 5 5 5 5 5 5 6 6 6 6 8 9 10 11 11 12 12 13 13 13 12
15 15 16 16 16 16 15 15 14 13 13 12 11 10 10 8 7 7 6 6 5 5 5 5 5 5 5 5 5 5 5 5 7 8 10 11 11 12 12 12 12 13 14
15 15 16 16 16 16 16 15 15 14 13 13 12 11 11 9 8 7 6 6 5 6 6 5 5 5 4 4 4 4 5 6 7 9 9 10 10 12 12 12 12 13 14
14 15 16 16 16 16 16 15 15 15 14 14 13 12 11 10 8 8 7 7 6 6 5 5 4 4 4 4 4 4 5 7 7 8 9 9 9 10 10 11 11 12 12
14 14 15 16 16 16 16 15 15 15 14 14 13 13 12 10 9 8 8 7 7 6 5 4 4 3 3 3 3 3 4 6 6 7 8 9 10 10 9 9 10 11 12
13 13 14 14 15 15 15 15 15 14 14 13 13 12 12 11 10 9 8 7 6 6 5 5 4 3 3 2 2 2 3 5 6 7 7 8 9 10 10 9 9 11 12
11 12 13 14 14 14 14 14 14 14 13 13 13 12 12 11 10 9 8 7 7 6 5 4 3 2 2 1 1 1 2 3 4 5 6 7 8 9 10 10 10 12 13
10 11 12 12 13 13 14 14 14 14 13 13 12 12 12 11 10 8 8 7 6 5 4 4 2 1 1 0 1 2 2 2 4 5 5 6 7 8 10 11 12 12 14
9 10 10 11 12 12 12 13 13 13 13 12 12 11 11 11 10 9 8 7 6 5 5 4 3 2 1 1 2 3 4 4 5 5 6 6 7 8 10 11 12 13 15
8 9 9 10 11 11 11 11 11 12 12 12 11 11 10 9 9 8 8 7 6 6 6 5 4 3 3 2 3 4 5 5 6 6 7 8 8 10 11 12 13 13 15
7 8 8 9 9 10 10 10 10 10 11 11 10 10 9 9 8 8 7 7 8 8 7 6 6 5 5 5 5 6 6 7 7 8 8 9 10 11 12 13 14 15 16
5 6 7 7 8 8 8 9 9 9 10 10 9 9 8 8 8 8 8 8 8 8 8 7 7 7 7 7 7 8 8 9 9 10 11 11 13 14 15 16 17 18 19
3 4 5 5 6 6 6 7 8 8 9 9 10 9 9 8 8 8 8 9 9 9 9 9 9 8 8 9 9 10 10 11 12 13 13 15 16 17 18 19 20 21 22
2 3 4 4 4 5 5 6 7 8 8 9 10 10 9 9 9 10 10 10 10 11 11 11 11 10 10 10 11 11 12 13 14 15 16 17 18 19 19 21 22 23 24
2 2 3 4 3 4 4 5 6 7 8 9 9 10 10 10 11 11 12 12 12 12 12 12 13 13 13 13 13 13 14 15 17 18 19 20 21 22 23 24 25 25 26
4 4 3 4 4 5 5 6 7 8 8 9 10 11 12 12 13 13 14 14 14 14 14 14 15 15 15 15 16 16 17 17 19 20 22 23 24 25 27 28 28 29 30
6 6 6 5 6 6 7 7 8 9 10 11 12 12 13 14 14 15 16 15 15 16 16 17 17 18 18 18 19 20 20 21 22 23 25 27 28 29 31 32 33 33 34
9 8 8 8 8 8 9 9 10 11 11 12 13 14 14 15 16 17 18 18 18 18 18 19 20 20 21 22 22 23 24 25 27 28 29 30 32 33 35 36 37 37 38
11 11 10 10 10 10 11 11 12 13 13 14 14 15 16 17 18 19 19 20 20 20 21 22 23 23 24 25 26 26 28 29 31 33 34 35 36 38 39 40 40 41 42
13 13 12 12 12 13 13 13 14 14 15 16 17 17 18 19 20 21 22 22 22 23 24 25 26 27 27 28 28 30 32 33 35 37 38 39 40 41 42 43 44 45 46
15 15 14 15 15 15 15 16 16 17 17 18 19 20 21 22 23 23 24 24 25 26 27 28 29 30 30 31 32 35 36 37 38 40 41 42 43 45 44 45 46 48 50

GEFSMA_500_meanwind_150.txt.gz
Wind_Speed
12 12 12 11 10 8 7 4 3 1 1 2 3 4 5 6 7 8 8 8 7 7 7 7 6 7 8 9 10 9 9 10 11 10 10 10 10 10 9 8 8 7 6
13 13 13 12 11 10 8 6 4 3 3 3 4 5 6 6 7 7 8 7 7 7 6 6 6 6 7 8 9 10 9 9 9 10 10 10 10 10 10 9 8 7 7
14 14 13 13 12 11 9 7 6 6 5 5 5 6 6 7 7 7 7 7 6 6 6 6 6 6 6 7 8 9 9 9 9 10 11 11 11 11 11 10 9 8 7
14 14 14 13 13 13 11 9 8 8 7 7 6 7 7 7 7 6 6 6 6 6 6 6 6 6 6 5 6 7 8 9 9 9 10 12 12 12 12 11 10 9 8
14 14 14 14 14 14 13 11 10 10 9 8 8 8 8 7 7 6 6 6 6 5 5 5 6 6 5 5 6 7 7 8 8 8 10 11 12 12 12 12 12 10 9
13 14 15 15 15 14 14 12 11 11 10 10 10 9 8 8 7 6 6 6 6 5 5 4 5 4 4 5 5 6 6 6 7 9 9 10 10 11 12 12 12 11 10
14 14 15 15 15 15 14 14 13 12 11 11 10 10 10 9 8 7 6 6 6 5 4 3 3 3 3 4 4 5 4 5 6 7 9 9 9 10 10 12 12 12 12
13 14 14 14 15 14 14 14 13 13 12 12 11 10 10 9 8 7 6 5 5 4 4 4 3 3 3 3 4 4 3 4 4 6 7 8 9 10 11 11 11 12 13
12 13 13 13 14 14 14 13 13 13 12 12 12 11 10 9 8 7 6 5 4 4 3 3 3 3 2 2 2 2 2 3 3 4 6 8 8 9 10 9 10 11 12
11 12 13 13 13 13 13 13 13 13 12 12 12 11 10 10 9 8 7 5 5 4 3 2 2 1 1 1 1 2 2 2 3 4 6 6 8 8 9 10 10 11 12
10 11 12 13 13 13 14 13 13 13 13 12 11 11 10 10 9 8 7 5 5 4 3 2 2 1 0 0 0 0 2 3 3 4 4 5 6 7 9 9 9 10 11
9 10 10 11 12 12 13 13 12 12 12 12 11 11 10 9 9 8 8 7 5 4 3 2 1 1 1 1 1 2 2 3 5 5 5 6 7 8 8 9 10 11 11
7 8 9 10 10 11 11 11 11 11 11 11 10 10 9 9 8 8 7 6 6 5 4 3 2 2 3 3 3 3 4 4 5 6 7 7 8 8 9 10 11 11 11
6 7 8 8 9 10 10 10 10 10 10 10 9 9 9 9 8 7 7 6 5 4 4 4 3 3 4 4 4 4 5 5 6 7 8 8 9 9 9 10 11 12 12
5 6 7 7 8 9 9 9 9 9 9 8 8 8 8 8 8 7 7 6 6 5 5 5 5 5 4 4 5 5 6 6 6 7 9 10 10 10 11 12 13 13 13
4 5 5 6 6 7 7 8 8 8 8 8 8 7 7 7 7 7 7 7 7 6 6 5 6 6 6 6 6 7 7 8 7 8 9 10 11 12 13 14 15 15 16
3 3 4 4 4 5 6 6 7 7 8 7 7 7 7 7 7 7 7 7 7 7 6 6 7 7 7 7 7 8 8 9 10 11 11 12 12 13 14 15 16 17 18
1 1 2 2 3 3 4 4 5 5 6 7 7 7 7 7 7 7 8 7 8 8 8 8 8 8 8 9 9 9 10 11 12 13 14 15 15 16 17 18 19 20 22
1 1 1 1 1 2 2 2 3 4 5 5 6 7 7 8 8 8 8 8 9 9 10 9 9 10 10 10 11 11 12 13 14 15 16 17 18 19 20 21 22 23 25
3 3 2 2 2 2 2 2 3 4 5 6 6 7 7 8 9 9 9 9 10 11 11 11 11 11 11 12 13 13 14 15 16 17 18 19 21 22 23 24 25 26 28
6 5 4 4 4 3 3 4 4 5 6 7 7 7 8 9 10 11 11 11 12 13 13 13 13 13 14 15 15 16 16 17 18 19 21 22 24 25 27 28 29 30 31
8 7 6 6 5 5 5 6 6 7 7 8 9 10 10 11 12 12 12 13 14 15 15 15 16 16 16 17 17 19 19 20 21 22 24 25 27 28 30 32 33 34 34
9 9 8 8 7 7 8 8 8 9 10 10 11 12 12 13 13 14 14 15 16 17 18 18 18 19 19 20 20 21 22 23 25 26 27 29 30 32 34 35 36 37 39
11 11 10 10 10 10 10 10 11 12 12 13 13 13 14 14 15 16 16 17 18 19 20 20 20 21 21 22 22 24 25 27 28 30 31 32 34 36 37 39 40 41 42
14 13 13 12 12 12 12 13 13 14 14 15 15 15 16 17 17 18 19 20 21 21 22 22 22 23 24 25 27 28 29 31 32 33 35 36 37 38 39 41 43 45 46
16 15 15 15 15 15 15 15 16 16 17 17 17 18 19 19 20 21 22 22 23 24 24 25 25 26 27 29 30 32 33 34 35 37 39 40 40 41 41 42 45 47 48

GEFSMA_500_meanwind_156.txt.gz
Wind_Speed
10 9 8 7 6 4 3 1 1 2 4 5 7 7 8 9 10 10 10 10 11 11 10 10 10 10 11 11 11 11 12 12 12 13 12 12 11 11 11 10 10 9 9
10 9 9 8 7 5 3 2 2 3 4 6 7 7 8 9 9 10 9 9 9 9 9 9 9 10 10 10 11 11 11 11 12 13 13 12 13 13 12 11 10 10 9
10 10 10 9 8 6 5 4 4 5 5 6 7 7 8 9 9 9 9 9 8 8 8 8 8 9 9 10 10 10 11 11 12 13 14 14 13 13 12 12 11 11 10
11 11 11 10 10 9 8 7 7 7 7 7 7 7 8 9 9 9 9 8 8 8 7 7 7 8 8 9 9 10 10 10 11 12 13 14 14 14 13 13 12 11 10
10 11 11 11 11 10 9 9 9 8 8 8 7 7 7 8 8 8 7 7 7 7 7 6 6 6 7 7 8 9 10 10 10 11 12 13 14 14 14 14 14 12 11
10 10 11 11 10 10 9 9 9 9 9 9 8 8 8 8 7 7 6 6 6 5 5 5 5 5 5 6 6 7 7 8 9 10 10 11 12 13 14 14 14 12 12
10 10 11 11 11 11 10 9 9 9 9 9 9 9 9 8 7 7 6 5 5 5 4 4 4 4 5 5 5 6 6 7 7 9 10 11 11 11 12 13 13 13 12
10 10 11 11 11 11 11 11 10 10 9 9 9 9 9 8 7 6 6 5 4 5 4 3 3 4 4 5 5 5 6 5 5 7 8 9 10 10 10 10 11 12 13
9 10 10 10 11 11 11 11 11 10 10 9 9 9 8 7 6 6 5 4 4 3 3 3 2 3 3 4 5 5 4 4 4 6 7 8 8 9 9 9 10 11 12
8 9 10 10 10 10 11 10 10 10 10 9 9 8 7 7 6 5 4 3 3 3 2 1 1 2 2 3 4 4 4 4 3 4 5 6 7 8 8 9 10 11 11
7 8 9 9 10 10 10 10 10 10 9 9 9 8 7 7 6 5 4 3 3 2 2 1 1 1 0 1 1 2 3 3 4 4 5 6 7 7 8 9 10 10 11
6 7 8 8 9 9 10 10 10 9 9 9 9 8 8 7 6 6 4 3 3 2 1 1 0 0 1 2 3 3 3 4 4 5 5 6 7 7 8 9 10 11 11
5 6 6 7 8 8 8 8 9 9 8 8 8 8 7 6 6 5 5 4 3 2 1 1 2 2 3 3 4 3 3 3 4 5 6 7 8 9 9 10 10 11 12
4 5 5 6 7 7 7 7 7 7 7 7 7 7 7 6 6 5 4 3 3 2 1 2 2 3 3 3 4 4 5 5 6 6 7 8 9 10 10 11 11 12 13
3 4 4 5 5 6 6 6 6 6 6 6 6 6 6 6 6 5 5 4 3 3 3 2 3 3 4 4 5 6 7 7 8 8 9 10 10 11 12 13 13 14 15
3 3 3 4 4 5 5 5 6 5 5 5 5 5 6 6 6 5 5 4 4 4 4 4 4 5 6 6 6 6 7 8 9 9 9 10 11 12 13 14 15 16 16
3 3 3 3 3 3 3 3 4 4 4 4 5 4 5 5 5 5 5 5 5 5 5 5 6 7 7 8 8 8 8 9 10 10 11 11 12 13 15 16 17 17 18
4 3 3 2 2 2 2 2 3 3 3 3 4 4 4 5 5 5 5 5 6 6 6 7 8 8 9 9 9 9 10 11 12 12 13 13 14 15 17 18 20 21 21
4 4 3 2 1 1 1 1 1 2 2 3 3 4 4 5 5 6 6 6 7 7 8 9 9 9 10 9 10 11 12 13 14 15 15 16 17 18 19 20 22 23 24
6 5 4 3 3 2 2 2 2 2 3 3 4 4 5 6 6 7 7 7 8 9 10 10 11 11 11 12 12 14 15 16 16 17 18 19 20 21 22 23 24 26 27
7 6 6 5 5 4 4 4 4 4 5 5 5 5 6 7 7 8 9 9 10 10 11 12 13 13 14 14 15 16 17 18 19 20 21 22 22 23 24 25 27 28 30
9 8 8 7 6 6 6 6 6 6 6 7 7 7 8 9 9 10 11 11 12 13 14 15 15 16 17 17 18 19 20 21 22 23 24 24 26 27 28 29 30 31 33
11 10 10 9 9 9 8 8 8 8 8 9 9 9 10 11 11 12 13 13 14 15 16 17 18 18 19 20 20 21 22 23 24 25 26 26 28 29 31 32 34 35 36
13 12 11 11 10 10 10 9 10 10 10 11 11 12 13 13 14 14 15 15 16 17 18 18 19 20 21 22 23 24 25 26 27 28 29 29 30 32 34 35 36 38 39
14 13 13 12 12 12 12 12 12 12 12 12 13 14 15 15 16 17 17 18 19 19 20 21 22 22 24 25 26 27 28 29 29 30 31 33 34 35 36 38 39 40 41
15 15 14 14 14 14 14 14 14 14 14 15 15 16 17 17 18 19 20 21 21 22 23 24 24 25 26 28 29 30 31 31 33 33 34 36 37 38 38 39 41 42 43

GEFSMA_500_meanwind_162.txt.gz
Wind_Speed
9 8 7 7 6 5 4 3 2 1 3 4 4 5 6 6 7 8 8 8 9 8 8 8 8 9 9 8 9 9 9 10 10 10 10 10 9 9 10 9 9 8 8
9 8 8 7 6 5 4 3 2 1 2 3 4 4 4 5 6 6 6 7 7 8 7 7 7 7 8 8 8 8 8 9 9 9 10 10 10 10 10 10 10 9 8
9 9 8 8 7 6 5 4 4 3 3 3 4 4 4 4 5 5 5 5 6 6 6 7 6 7 7 8 8 8 8 9 9 9 10 10 10 11 11 10 10 9 9
10 9 9 8 7 6 6 5 5 5 4 4 4 4 5 4 4 4 3 4 4 5 5 5 5 5 6 6 7 7 8 8 9 9 10 10 10 11 10 10 10 10 9
10 10 9 9 8 7 6 6 6 6 6 6 5 5 5 5 4 3 3 3 3 4 4 4 4 4 5 5 6 7 7 7 8 8 9 10 10 10 10 11 11 11 11
10 10 9 9 8 7 7 7 7 7 7 7 6 6 5 5 4 3 3 2 2 3 3 2 3 3 4 5 6 6 7 7 8 8 8 9 9 9 10 11 11 11 11
9 10 9 9 9 8 8 8 7 7 7 7 6 6 5 5 4 4 3 2 2 2 1 1 1 1 3 4 5 5 6 7 8 7 8 9 9 9 10 11 11 11 11
8 9 9 9 9 8 8 8 8 7 7 7 7 6 6 6 5 4 4 3 2 2 1 0 1 2 2 3 3 4 5 6 6 6 7 8 9 9 10 10 10 11 11
8 8 8 9 9 8 8 8 8 7 7 7 7 6 6 6 6 5 4 3 2 2 1 1 1 2 2 3 3 4 5 5 5 6 7 8 8 8 8 9 10 10 11
7 8 8 8 8 8 8 8 8 8 7 6 6 6 5 6 6 5 4 4 3 3 2 2 2 2 3 3 4 4 4 4 4 5 5 6 7 7 7 7 8 8 9
6 7 7 7 7 7 7 7 7 7 7 6 6 5 5 5 5 5 5 4 4 4 3 3 3 3 4 4 5 5 4 4 4 4 4 4 5 6 6 7 7 8 9
5 6 6 6 7 7 7 7 7 7 7 6 6 6 5 5 5 4 4 4 4 4 4 4 3 3 4 5 5 5 4 4 4 5 5 5 5 5 6 6 6 7 8
4 4 5 5 5 6 6 6 6 7 7 6 6 6 5 4 5 5 4 4 5 5 5 5 4 4 4 4 6 6 6 6 6 6 6 5 5 5 6 7 7 8 9
3 4 4 5 5 5 5 5 5 5 6 6 6 6 5 5 5 4 4 4 4 5 5 5 5 5 5 6 6 7 6 6 7 6 6 6 6 7 7 8 8 9 10
2 2 3 3 3 4 4 4 4 4 5 5 5 5 5 5 5 4 4 4 4 5 5 6 6 6 6 6 7 8 7 7 8 8 7 7 7 8 9 10 11 12 12
0 1 1 2 2 3 3 3 3 3 4 4 5 5 5 5 5 5 5 5 5 6 6 6 6 6 7 7 7 8 9 9 10 10 10 10 10 11 12 13 13 14 15
1 1 0 1 1 2 2 2 3 3 3 4 4 4 4 4 5 6 6 6 6 6 7 7 7 8 8 9 9 9 10 11 11 11 12 12 12 13 14 15 16 16 17
2 1 1 1 1 1 1 2 2 2 3 3 3 4 4 5 5 5 6 6 7 7 8 8 8 9 10 10 10 11 11 12 12 12 13 14 15 15 16 17 18 19 20
4 3 3 2 1 1 1 2 2 2 2 3 3 4 5 5 5 6 6 7 7 8 8 9 9 10 11 11 12 13 14 14 14 15 16 16 17 18 19 20 20 21 22
6 5 4 4 3 2 3 3 3 3 3 4 4 5 5 5 6 7 7 8 9 9 10 10 11 12 12 13 14 15 15 16 16 17 18 19 20 20 21 21 22 23 24
8 7 6 6 5 5 5 5 5 5 5 6 6 6 6 7 7 8 9 10 11 11 12 12 13 14 14 15 16 16 17 18 19 20 21 21 22 22 23 24 24 25 26
10 9 8 7 7 6 6 6 6 7 7 7 7 8 8 8 9 10 11 12 12 13 13 14 15 16 16 17 18 19 19 21 22 22 23 24 24 25 25 26 27 28 29
12 11 10 9 9 8 8 8 8 9 8 9 9 9 9 10 11 12 13 13 14 15 15 16 17 17 18 19 20 21 22 23 24 25 25 26 27 27 28 29 30 31 32
14 13 12 11 10 10 10 10 10 10 10 10 10 10 11 12 13 13 14 15 16 16 17 18 19 20 21 21 23 23 24 25 26 27 28 28 28 29 31 32 33 34 35
15 15 15 13 12 12 11 11 12 12 12 12 12 13 13 14 15 15 16 17 18 19 20 21 22 22 23 24 25 25 26 27 28 29 30 30 30 31 32 33 34 36 37
16 15 15 15 14 14 14 14 14 14 14 14 15 15 16 16 17 17 18 19 20 21 22 23 23 24 25 26 27 28 29 30 30 31 32 32 33 33 33 34 36 37 39

GEFSMA_500_meanwind_168.txt.gz
Wind_Speed
6 6 6 5 5 3 2 1 1 2 3 5 5 6 6 6 7 7 7 8 8 8 8 8 8 8 9 9 9 8 8 8 8 8 8 8 8 9 9 9 9 10 9
7 7 7 7 6 5 4 3 2 3 3 4 4 5 5 5 6 6 7 7 7 7 7 7 7 8 8 8 8 8 8 8 8 8 7 8 8 9 9 9 9 9 9
7 7 7 7 6 6 5 3 3 3 4 4 4 4 4 5 5 5 5 5 6 6 6 6 6 7 8 8 8 8 8 8 8 8 8 8 8 9 9 9 9 9 9
7 7 8 7 7 6 6 5 5 5 5 5 5 4 4 4 4 4 5 5 5 5 6 5 6 6 7 8 8 8 7 7 8 8 9 9 9 9 9 9 10 10 9
8 8 8 7 7 7 6 6 5 5 6 6 6 5 5 4 4 4 4 4 4 5 5 5 5 5 6 6 6 6 7 7 8 8 8 8 8 8 9 9 10 10 10
8 8 8 8 8 7 7 7 7 6 6 6 6 6 6 5 5 4 4 4 3 3 3 3 3 3 4 5 4 5 6 6 6 7 7 7 8 8 8 9 10 10 10
8 9 9 9 8 8 8 8 8 7 7 6 7 7 7 6 6 5 5 4 3 3 2 3 2 2 3 3 3 4 4 5 6 6 7 7 7 8 8 8 9 10 10
8 8 8 8 8 8 8 8 8 7 7 7 7 7 6 5 5 5 5 4 4 3 2 3 3 3 3 2 2 2 3 4 6 6 6 7 7 7 8 9 9 10 10
7 7 8 8 8 8 8 8 8 8 7 7 7 6 6 5 5 5 4 3 3 3 2 2 2 2 1 1 0 1 2 3 4 5 6 6 6 7 8 8 9 9 10
7 7 8 8 8 8 8 8 8 7 7 6 6 6 5 5 5 5 4 3 3 3 3 2 2 1 1 0 1 2 3 3 3 4 5 6 6 7 7 8 7 7 8
7 7 7 7 7 7 7 7 8 7 7 6 6 5 5 5 5 5 4 4 3 3 2 2 2 1 0 1 2 2 2 2 3 4 4 4 6 6 7 8 7 7 7
6 6 6 7 7 7 7 7 7 7 6 5 5 5 5 4 4 4 4 4 3 3 2 2 2 1 1 2 2 2 2 2 2 3 4 4 5 6 7 7 7 7 8
5 6 6 6 7 7 7 7 7 6 6 5 4 4 4 4 4 4 4 4 3 3 2 2 2 2 2 2 2 2 2 2 3 3 4 5 5 6 6 7 7 8 8
4 5 5 6 6 6 5 5 5 5 5 4 4 4 3 3 3 3 3 3 3 3 2 2 2 2 3 3 2 2 3 4 4 5 5 5 6 6 7 7 8 8 9
4 4 4 5 5 5 5 4 4 3 3 4 4 3 3 4 3 3 3 3 3 2 2 2 2 3 4 4 4 4 4 5 5 4 5 6 7 7 8 9 10 11 11
3 3 3 3 3 4 4 3 3 2 2 3 3 3 3 3 3 3 3 3 3 3 3 3 3 4 5 5 5 5 5 5 6 6 6 7 8 9 10 12 13 14 14
4 3 3 2 2 2 2 2 2 2 2 2 2 2 2 3 3 3 3 3 3 3 3 3 3 4 5 6 6 6 7 7 8 9 9 10 11 11 12 13 14 15 16
5 5 4 3 2 1 1 0 0 1 1 1 1 1 2 2 3 3 3 3 4 4 4 5 5 5 6 7 7 8 9 9 10 11 12 12 13 14 14 14 15 16 17
7 6 5 4 4 3 2 2 2 1 1 1 1 1 2 2 3 3 3 4 5 5 6 6 7 8 8 9 10 10 11 11 12 13 14 14 15 15 16 16 17 18 19
8 8 7 6 5 4 4 3 3 3 3 3 2 2 3 3 4 4 4 5 6 7 7 8 9 10 11 11 12 13 13 13 14 15 16 16 17 18 18 19 20 21 22
9 9 8 8 7 6 5 5 5 4 4 4 4 4 5 5 5 5 6 6 7 8 9 10 11 12 12 13 14 14 15 16 16 17 18 19 19 20 21 22 23 24 25
10 9 9 9 8 8 7 7 6 6 6 6 6 6 6 7 7 7 8 8 9 9 10 11 12 13 14 15 16 16 17 18 19 20 21 21 22 23 23 24 25 26 27
12 12 11 11 10 9 9 9 8 8 8 8 8 8 8 8 9 9 10 10 11 11 12 13 14 15 16 17 18 19 19 20 21 22 23 24 25 26 26 26 27 29 30
15 14 13 13 12 12 11 10 10 10 10 10 10 10 10 10 11 11 12 12 13 14 15 16 17 17 18 19 20 21 21 22 23 25 26 26 27 28 28 29 30 31 32
16 15 15 14 14 14 13 12 12 12 11 12 12 12 12 13 13 14 14 15 15 16 17 18 19 20 21 22 23 23 23 24 26 27 28 28 29 29 29 30 31 33 34
17 17 16 16 16 16 15 15 15 14 14 14 14 14 15 15 15 16 16 17 17 18 19 20 21 22 23 24 25 25 26 26 28 29 30 31 30 30 30 31 33 34 35

GEFSMA_500_meanwind_174.txt.gz
Wind_Speed
4 4 3 2 2 1 0 1 1 2 3 4 5 5 5 6 6 6 6 7 7 8 8 7 8 8 9 9 9 9 9 9 9 9 8 9 9 10 9 10 10 10 11
4 3 3 3 2 2 2 2 2 2 2 3 3 4 4 5 5 6 5 5 6 7 7 7 7 8 8 8 9 9 9 9 9 9 9 9 9 10 10 10 10 10 11
4 4 3 3 3 3 4 3 3 3 3 3 3 3 4 4 5 5 5 5 6 6 6 6 6 7 8 8 8 9 9 9 9 9 9 9 9 9 10 10 11 11 11
3 4 4 4 4 4 4 4 5 4 4 3 3 3 3 4 4 4 4 4 5 5 5 6 6 6 7 7 7 7 8 9 9 9 9 9 9 10 10 10 11 11 11
3 4 4 4 4 4 5 5 6 5 5 4 4 4 4 4 4 4 4 4 4 4 4 5 5 6 6 6 6 6 7 8 8 8 8 8 9 9 10 10 11 11 11
4 4 4 4 5 5 6 6 6 5 5 5 5 4 4 3 3 3 3 3 4 3 3 4 5 5 6 6 5 5 6 6 7 8 8 8 8 8 8 9 10 11 11
4 5 6 5 5 5 6 6 6 5 5 5 5 4 4 3 3 2 2 2 3 2 2 3 4 4 5 5 6 5 5 5 6 7 7 8 8 8 8 9 9 10 11
5 6 6 6 5 6 6 6 6 5 5 5 5 5 4 3 3 2 2 2 2 2 2 2 2 3 3 4 5 5 5 5 6 6 7 8 8 8 9 9 9 10 11
5 5 6 6 5 5 6 6 6 5 5 5 5 5 4 4 4 2 2 1 2 2 2 1 2 2 3 3 4 5 5 4 5 6 7 8 9 9 9 9 10 10 11
5 5 6 6 6 6 6 6 6 6 6 5 5 5 5 4 4 3 3 3 2 2 1 1 1 2 2 3 3 4 4 5 4 6 6 7 8 9 9 9 10 10 10
5 5 5 5 6 6 6 5 5 5 5 5 5 4 4 4 3 2 3 3 2 1 0 1 1 2 2 3 3 4 4 5 5 5 6 7 7 8 8 9 9 10 10
5 5 5 5 5 6 6 5 5 5 4 4 3 3 2 2 2 2 3 3 1 1 1 2 2 3 3 3 4 5 5 6 6 6 6 6 7 8 8 9 10 10 11
4 4 4 4 5 5 5 5 5 4 4 3 2 2 2 2 1 2 3 3 2 2 3 3 3 4 4 5 4 5 5 6 6 7 7 7 8 8 9 10 11 11 12
4 3 3 3 3 3 4 4 3 3 3 2 2 2 2 3 2 2 2 3 3 2 3 3 3 3 4 4 5 5 5 6 6 6 7 8 9 10 10 11 11 12 13
4 3 2 2 2 2 2 2 2 2 1 1 1 1 2 2 2 2 2 3 3 3 3 3 3 3 4 4 5 5 6 6 6 7 8 10 10 10 11 12 12 13 14
5 4 3 2 2 2 1 1 1 1 1 0 0 1 2 2 2 3 3 3 3 3 3 4 4 4 5 5 5 6 6 7 8 9 10 11 11 12 13 14 14 14 14
6 5 4 3 3 2 2 2 2 2 2 1 1 1 2 3 3 4 4 3 4 4 3 3 5 5 6 6 7 7 8 8 9 10 11 11 12 13 14 14 15 15 16
7 6 5 5 4 3 3 3 3 3 3 3 3 3 3 3 4 4 4 5 5 4 5 4 5 6 6 7 8 9 10 10 11 11 12 13 13 14 14 15 16 17 17
8 7 7 7 6 5 5 4 4 4 4 4 4 4 5 5 5 5 6 6 6 6 7 8 7 8 8 9 9 10 11 12 13 13 13 14 14 15 16 17 18 18 19
9 9 8 8 7 6 6 6 5 5 6 6 6 6 6 7 7 7 7 8 8 8 9 9 10 10 10 11 11 12 13 13 14 15 16 17 17 18 19 20 20 21 22
11 10 9 9 9 8 8 7 7 7 7 7 7 7 8 8 9 9 9 9 9 9 10 10 11 11 11 11 12 13 14 15 16 17 18 19 19 20 21 22 23 24 25
13 12 11 11 10 10 10 9 9 9 9 8 8 9 9 9 10 10 10 10 11 11 11 12 12 13 13 14 15 16 16 17 18 19 20 21 22 22 23 24 25 26 27
14 13 13 13 12 11 11 11 11 11 10 10 10 10 11 11 11 11 12 12 13 13 13 13 14 15 16 16 17 18 18 19 20 21 22 23 24 25 26 27 27 28 28
15 15 15 14 14 13 13 13 13 13 12 12 12 12 13 13 14 14 14 15 15 15 15 16 17 17 18 18 19 20 20 21 22 23 24 25 26 27 28 29 29 29 29
16 15 15 15 15 15 15 15 15 14 14 15 15 15 16 16 16 16 16 17 17 17 17 18 19 19 20 21 21 22 22 23 24 25 26 27 28 28 29 30 31 31 31
17 17 17 17 17 17 17 17 17 17 17 17 17 17 17 17 17 17 17 17 18 19 19 20 20 21 22 22 23 24 24 25 26 27 28 29 30 31 30 30 32 33 34

GEFSMA_500_meanwind_180.txt.gz
Wind_Speed
1 1 0 0 1 2 2 2 2 4 4 5 6 6 6 7 7 7 7 7 8 8 9 10 10 10 11 10 11 12 12 12 11 11 11 12 11 11 11 11 12 12 12
1 1 1 0 1 1 2 2 3 3 4 5 5 5 5 6 6 6 7 7 7 8 8 9 9 10 10 10 10 10 11 11 11 11 10 10 11 11 12 12 12 12 13
0 0 0 0 1 1 2 2 3 3 4 4 4 4 5 5 5 5 5 6 6 7 7 8 8 8 9 9 10 10 9 10 10 10 10 11 11 12 12 12 12 12 13
0 0 0 1 1 2 2 2 3 4 4 4 3 3 4 4 5 5 4 4 5 6 6 6 7 8 8 8 8 8 8 8 9 10 10 11 11 11 11 11 11 12 12
0 1 1 1 1 2 2 3 4 4 4 4 3 3 3 4 4 5 5 4 5 5 6 6 6 7 7 7 8 8 8 8 9 10 11 11 11 11 11 11 11 11 11
1 1 1 1 2 2 3 3 4 5 4 4 3 3 3 3 4 4 4 4 5 5 6 6 6 6 7 7 8 8 8 8 9 10 11 11 11 11 11 11 11 11 11
1 1 1 2 2 3 4 4 4 5 5 4 3 2 2 2 3 4 4 4 5 5 5 5 6 6 6 6 7 8 9 9 9 10 10 11 11 11 11 11 11 11 11
2 2 3 3 3 3 4 4 4 4 4 3 2 2 2 2 2 3 4 4 4 4 5 4 4 5 5 6 6 8 8 8 8 8 9 9 10 10 11 11 11 11 11
2 3 3 3 3 3 4 4 4 4 4 3 2 2 2 1 1 3 3 3 3 3 4 3 4 5 6 7 6 7 7 7 7 7 7 7 8 9 10 10 10 10 11
2 3 3 3 3 3 4 4 4 4 4 4 3 3 2 1 2 2 2 2 2 3 3 4 5 5 5 5 5 5 6 7 6 6 7 7 7 8 9 9 10 10 11
3 3 3 3 3 4 4 4 4 4 4 4 3 3 2 2 2 2 1 2 2 2 3 3 3 3 3 4 4 5 5 5 6 6 6 6 7 8 9 10 11 12 12
4 4 4 3 3 4 4 4 4 3 3 3 2 2 1 1 1 1 1 1 0 1 2 3 3 3 3 4 5 5 5 5 6 6 6 7 8 8 8 9 11 12 13
4 4 4 3 4 4 4 4 3 3 3 2 2 1 1 1 1 1 0 0 1 2 3 3 4 4 4 5 5 5 6 6 6 6 7 8 9 9 10 11 11 13 13
4 4 4 4 4 3 3 3 3 3 2 1 1 0 0 0 0 1 1 2 2 2 3 4 4 5 5 4 4 5 6 6 7 8 8 9 9 10 11 11 12 13 14
5 4 4 3 3 3 2 2 2 2 1 1 1 1 1 0 1 1 2 3 3 4 3 3 4 4 4 4 5 5 6 6 7 8 9 9 10 11 12 13 14 15 16
5 4 4 3 3 3 3 2 2 2 2 1 1 1 1 2 2 3 3 4 4 4 4 4 4 5 5 5 6 6 7 8 9 9 10 11 11 12 14 15 15 16 17
6 5 5 4 4 4 4 4 3 3 2 2 2 2 2 3 3 4 4 4 4 4 4 5 6 6 6 6 7 8 9 10 10 10 11 13 14 15 15 16 16 16 17
7 7 6 6 5 5 5 4 4 4 3 4 4 4 3 4 4 4 4 4 5 5 6 6 7 7 7 7 9 9 10 10 11 11 13 14 15 16 16 17 17 18 19
8 8 7 7 7 6 6 6 5 5 5 5 5 5 5 5 5 5 6 6 6 7 7 7 8 8 8 9 10 10 11 12 13 14 15 16 16 17 18 18 19 20 21
10 9 9 8 7 7 7 7 6 6 6 6 6 6 6 7 7 7 8 8 8 9 9 9 10 10 10 10 10 11 12 13 14 15 16 17 18 18 19 20 21 22 22
10 10 10 9 9 8 8 8 8 8 7 7 7 7 8 8 8 8 9 9 9 10 10 11 11 12 12 12 13 13 14 15 16 17 18 19 19 20 21 22 23 24 24
12 11 11 11 11 10 10 10 10 10 9 9 9 9 9 9 9 10 10 10 11 11 11 12 12 13 13 14 14 15 17 18 19 19 20 20 21 22 23 24 24 25 26
13 13 12 12 13 12 12 12 12 11 11 11 11 11 11 11 11 11 12 12 12 12 13 13 14 14 15 15 16 18 18 19 20 21 21 22 23 24 25 25 26 27 28
14 14 14 14 14 14 14 14 14 13 13 13 12 12 12 12 12 13 13 14 14 14 15 15 16 16 17 17 18 19 20 21 22 23 23 24 25 26 27 28 29 30 31
15 15 15 15 15 15 15 15 15 14 14 14 13 13 14 14 15 15 15 15 15 16 17 17 17 18 19 19 20 21 22 23 23 24 25 26 27 28 29 30 31 32 32
16 16 16 16 16 16 16 15 15 15 15 15 15 16 16 16 16 17 17 17 17 18 18 18 19 20 21 21 22 23 23 24 25 26 27 28 29 30 30 31 33 33 34

GEFSMA_500_meanwind_186.txt.gz
Wind_Speed
4 4 3 3 2 3 2 2 2 1 2 2 2 2 3 5 4 5 5 7 7 7 8 8 9 10 11 11 11 11 11 11 11 11 10 10 10 10 11 11 11 12 12
4 4 3 2 2 2 1 1 2 2 2 2 2 3 3 4 4 5 5 6 7 7 7 7 8 9 9 10 10 10 10 10 10 10 9 10 10 10 11 11 12 12 12
4 3 3 2 2 1 1 1 1 1 1 1 2 2 2 3 3 4 4 5 6 6 6 6 7 8 8 8 9 10 10 9 9 9 9 9 10 10 11 11 12 12 12
4 4 3 2 2 2 2 1 1 1 0 1 1 1 1 1 2 3 3 3 4 4 5 5 5 6 7 7 8 8 9 8 8 9 9 9 10 10 11 11 12 11 12
4 4 3 2 2 2 2 1 1 1 0 1 1 1 1 2 2 2 3 3 3 3 4 5 5 6 6 7 8 8 8 8 8 8 9 9 9 9 10 11 12 11 11
3 3 3 2 1 1 1 1 1 1 1 0 1 2 2 2 2 2 3 3 3 3 3 5 5 6 6 7 7 7 7 8 8 8 9 9 9 10 10 11 11 11 11
3 2 2 2 1 1 2 1 0 1 1 0 1 2 2 2 2 3 3 2 2 2 3 4 5 5 6 6 6 7 7 7 8 8 9 9 9 10 10 11 11 11 11
2 2 1 1 1 1 1 1 0 0 1 1 1 2 2 2 2 2 2 2 2 2 3 4 5 5 5 6 6 7 7 7 7 8 9 9 9 10 10 10 11 11 11
2 1 1 1 1 1 1 0 1 1 1 1 1 1 2 2 2 2 2 3 3 3 3 4 5 5 6 6 6 6 6 7 7 7 8 8 9 10 10 10 10 11 11
1 1 0 0 1 1 0 1 1 1 1 0 1 1 2 2 2 3 3 3 3 4 4 5 5 5 5 6 7 7 7 7 7 7 7 8 9 9 8 9 10 11 11
1 1 0 0 0 1 1 1 1 1 1 1 1 2 2 3 3 2 3 3 4 5 5 5 6 5 5 6 6 6 6 6 6 6 6 7 8 8 8 8 9 10 12
1 0 0 1 1 1 1 1 1 1 1 1 2 2 2 3 3 3 3 4 5 5 5 5 6 6 6 6 6 5 5 6 6 6 6 7 8 9 9 10 10 12 13
1 1 1 1 1 1 1 1 1 1 1 2 2 2 2 3 3 3 4 4 5 5 6 5 6 6 6 6 5 5 6 6 6 7 7 8 8 9 9 10 11 12 13
2 1 0 1 2 2 1 1 0 1 2 2 2 2 2 3 3 3 4 5 5 5 6 6 6 7 7 7 6 6 6 7 7 7 8 8 9 10 10 11 12 12 13
2 2 1 1 2 2 1 1 1 2 2 3 3 3 3 3 4 4 5 6 6 6 6 6 6 6 7 7 7 7 7 7 7 7 9 9 10 11 11 12 12 13 14
4 3 3 2 2 2 2 2 2 3 3 4 4 4 4 4 4 5 5 6 6 6 6 7 7 7 7 8 7 7 8 8 8 9 10 11 11 12 12 13 14 14 15
5 5 4 4 4 4 3 3 3 3 4 4 4 5 5 6 5 6 6 7 7 7 8 8 8 7 8 8 9 9 9 10 10 11 12 12 12 13 13 14 14 15 16
6 6 5 6 5 5 5 5 4 4 4 5 5 5 6 6 6 6 6 7 8 8 8 9 8 8 8 9 10 10 11 11 12 12 13 13 13 14 14 15 16 17 17
7 7 6 6 6 6 6 6 6 5 5 6 6 6 7 7 7 7 7 7 8 9 9 9 10 9 9 10 11 12 12 13 13 13 14 14 15 15 16 17 18 19 19
8 8 7 7 7 7 7 7 7 7 7 7 7 7 7 7 8 8 8 8 9 9 10 10 10 10 10 11 12 12 12 13 13 14 15 15 16 17 18 19 20 21 21
9 9 9 8 8 8 8 9 9 8 8 8 8 8 9 9 10 10 10 10 10 11 11 11 11 12 12 13 13 14 13 14 15 16 16 18 18 19 19 21 21 22 23
11 10 10 10 10 9 10 10 10 10 10 10 10 11 11 11 11 11 12 12 12 12 13 13 13 13 14 14 15 15 15 16 17 18 19 20 20 21 22 23 23 24 25
11 11 11 11 11 11 11 11 11 12 12 12 13 13 13 13 13 13 13 13 13 14 14 14 15 15 16 16 16 16 17 18 18 19 19 21 22 23 23 24 25 26 27
13 13 13 13 13 13 13 13 13 13 13 14 14 14 14 14 15 15 15 15 15 16 15 15 16 16 17 17 17 18 18 19 20 21 22 23 24 25 25 26 27 28 29
14 14 14 14 14 14 14 14 14 14 14 15 15 15 15 15 16 16 16 16 17 16 16 16 16 17 18 18 19 20 21 21 22 22 23 24 25 26 27 29 29 30 31
15 14 15 15 16 16 15 15 15 15 15 15 15 16 16 16 17 17 17 17 17 17 17 18 19 19 20 20 21 22 22 23 24 24 25 26 28 29 29 30 31 32 33

GEFSMA_500_meanwind_192.txt.gz
Wind_Speed
2 2 2 2 2 3 3 4 3 3 4 4 4 4 4 5 6 7 7 8 8 8 8 8 9 9 9 9 10 10 10 11 10 11 10 10 11 11 11 11 11 11 11
2 2 2 1 2 2 3 3 2 2 3 3 3 3 3 3 4 5 5 6 7 7 8 8 8 9 9 9 8 8 9 10 10 10 10 11 11 11 11 11 11 11 12
3 2 2 2 1 2 3 2 2 2 2 2 2 1 2 2 3 3 4 4 6 7 7 7 7 8 7 7 7 8 8 8 9 9 10 10 10 10 11 11 11 11 11
2 1 1 2 2 2 2 2 1 1 1 2 1 1 1 2 3 3 3 3 4 5 5 6 7 6 6 6 7 7 8 8 8 8 9 10 10 10 11 11 11 11 11
1 1 1 1 2 3 3 2 2 1 1 1 1 1 1 1 2 2 3 3 3 4 4 4 5 5 6 6 7 7 8 8 8 8 9 9 10 10 10 10 11 11 11
1 1 1 1 2 3 3 2 2 1 1 1 1 1 1 1 1 2 2 2 3 3 4 4 5 4 4 5 6 6 6 7 8 8 8 9 10 10 10 10 10 11 11
0 0 1 1 2 3 3 2 2 2 1 1 1 1 1 2 1 1 1 1 2 2 3 4 4 4 4 5 6 6 7 7 7 7 8 8 9 9 10 10 10 11 11
0 0 1 2 2 2 2 2 2 2 2 1 1 1 1 1 1 1 1 1 2 3 3 4 5 5 5 5 6 6 7 7 7 7 7 8 9 9 10 10 10 11 11
0 1 1 2 2 2 2 2 1 2 2 2 1 1 1 1 2 2 2 2 3 3 4 5 5 6 6 6 6 6 6 6 6 7 7 8 9 9 10 10 11 11 11
0 1 1 1 2 2 2 2 1 2 2 2 1 1 1 1 2 2 3 3 4 4 5 5 5 6 6 6 7 7 7 6 6 7 7 7 8 9 9 10 10 11 11
1 1 1 2 2 2 2 2 2 1 1 1 2 2 2 2 2 3 3 4 4 5 5 5 6 6 6 6 7 7 7 7 7 7 7 7 7 8 9 9 10 10 10
1 2 1 2 2 2 2 2 2 1 1 1 2 2 2 3 3 4 4 5 5 5 6 6 6 6 7 7 7 7 7 7 7 6 7 7 8 8 8 9 9 10 11
2 2 2 2 1 2 2 2 2 1 1 1 1 1 2 2 3 3 4 4 4 5 5 5 6 7 7 7 7 7 6 6 6 7 7 8 8 8 9 9 10 10 11
2 2 2 2 2 2 2 2 1 1 1 1 1 1 1 2 2 3 3 3 4 4 5 5 5 6 6 6 6 6 6 6 7 8 8 8 9 9 10 10 10 11 11
3 2 2 2 2 2 2 2 2 1 1 1 1 1 2 2 3 3 3 4 5 5 5 6 6 5 5 5 6 6 7 8 8 8 9 9 9 9 9 10 10 11 11
4 4 3 3 3 2 2 2 2 2 2 2 2 3 3 2 3 3 4 5 6 6 6 7 6 5 6 6 7 7 8 8 9 9 9 10 10 10 10 11 12 13 14
5 5 4 4 3 3 3 2 2 2 3 3 3 3 4 4 4 5 5 5 6 6 7 7 6 7 7 8 8 9 9 10 10 10 11 11 11 11 12 12 13 14 14
6 6 5 5 4 4 4 4 4 4 4 4 4 4 5 5 5 6 6 6 6 6 7 7 8 8 8 9 9 10 11 11 12 12 11 12 12 13 13 14 15 15 16
7 7 7 6 6 6 5 5 5 5 5 5 5 5 5 6 6 6 7 7 7 8 9 9 9 9 10 10 10 11 11 12 12 12 12 13 13 14 15 16 16 17 18
8 8 8 8 8 8 7 7 7 7 6 6 6 6 6 6 6 7 8 9 9 9 9 10 10 10 11 12 12 12 12 13 13 14 14 15 15 16 17 17 17 18 19
9 9 9 9 8 8 8 8 8 8 7 7 7 7 8 8 9 9 10 10 10 10 11 11 12 12 13 13 13 13 13 14 15 16 16 16 17 18 18 19 19 19 20
11 10 10 10 10 9 8 8 9 9 9 9 10 10 10 10 11 11 11 11 12 12 13 13 14 14 14 14 14 15 15 15 16 16 17 18 19 19 20 20 21 22 23
13 12 10 10 10 10 9 10 10 10 11 11 11 11 11 12 12 13 13 13 13 13 14 14 15 15 15 16 16 16 17 17 18 18 19 20 21 22 23 23 24 25 26
14 13 12 11 11 11 11 11 12 12 12 12 12 13 13 13 13 13 13 14 14 15 15 15 16 16 16 16 17 17 18 19 20 21 21 22 23 24 25 26 26 27 28
16 15 14 13 13 13 12 12 13 13 13 13 13 13 13 14 14 14 14 15 15 16 16 17 17 18 18 18 18 19 20 21 22 23 23 24 25 26 27 28 29 29 30
15 15 15 15 14 14 14 13 13 14 13 13 14 14 14 15 16 16 16 16 17 18 18 19 19 20 20 20 21 21 22 23 24 24 25 26 27 27 27 29 30 31 32

GEFSMA_500_meanwind_198.txt.gz
Wind_Speed
3 3 3 4 4 4 3 4 5 5 5 6 6 6 7 7 7 7 8 9 9 9 9 10 10 11 11 11 10 11 11 11 11 10 10 10 12 13 13 12 11 11 11
3 3 3 3 3 3 3 3 4 5 5 5 6 6 7 7 7 7 7 8 8 9 9 9 9 10 11 11 11 10 10 10 10 10 10 11 11 12 12 12 12 12 11
3 3 3 3 3 3 3 3 3 4 4 5 5 5 5 5 5 6 6 7 8 8 9 9 9 10 10 10 10 10 10 10 9 10 10 10 11 12 12 12 12 12 12
3 3 3 2 2 3 3 3 3 4 3 3 4 3 3 4 4 6 6 7 7 7 8 8 9 8 9 9 9 9 9 9 9 10 10 10 11 11 12 12 12 13 13
3 3 3 2 2 2 2 3 4 3 3 2 2 2 3 3 3 4 4 4 5 6 7 7 7 7 7 7 8 8 8 9 9 9 9 10 11 11 11 12 12 12 12
3 3 3 2 2 2 3 3 3 3 3 3 2 2 2 2 2 2 3 3 3 4 5 6 6 6 6 6 7 7 7 8 8 8 9 9 10 10 11 11 12 12 12
3 3 3 2 2 2 3 3 3 3 3 2 2 1 1 2 2 1 2 2 3 4 4 5 6 6 6 7 7 7 7 7 7 8 9 9 10 10 10 11 11 11 11
3 2 2 2 2 2 3 3 3 3 2 3 2 1 1 1 2 2 2 3 4 4 4 5 6 6 6 7 7 7 7 7 7 7 8 9 9 10 10 10 10 11 11
3 2 2 2 2 3 3 3 3 2 2 2 2 2 2 2 2 2 3 3 3 4 4 5 5 5 6 6 7 7 7 7 8 8 8 8 9 9 9 9 10 11 11
2 2 2 3 3 3 3 2 2 3 2 3 3 3 3 3 3 3 4 4 4 4 4 4 4 5 5 5 6 6 6 6 7 8 9 8 9 9 9 10 10 10 11
2 2 2 2 3 3 3 2 3 3 3 3 4 4 4 4 4 4 4 5 5 5 5 5 5 6 5 5 6 6 7 8 8 8 8 8 8 9 9 10 10 11 11
2 2 2 2 2 2 2 2 3 3 4 4 4 4 4 4 4 5 5 6 6 6 6 6 6 7 6 7 7 7 8 8 8 8 8 8 8 9 9 10 11 11 12
3 3 3 2 2 3 3 2 3 3 4 4 4 4 4 4 4 4 6 6 6 6 6 6 7 7 7 7 7 8 8 8 8 8 8 8 8 9 10 11 11 11 11
4 3 3 3 3 3 3 3 3 3 3 3 4 4 4 4 5 5 5 5 5 6 6 6 7 7 6 7 7 8 8 8 8 8 8 9 9 10 10 11 11 11 12
5 4 4 4 4 4 3 3 3 3 3 3 3 3 4 5 5 5 5 5 5 5 6 7 7 7 7 7 7 7 8 9 9 9 9 10 11 11 12 12 12 13 13
6 5 5 5 4 4 4 3 3 3 3 3 4 5 5 5 5 5 5 5 5 5 6 6 7 6 7 8 8 9 9 10 10 10 11 11 12 12 13 13 13 14 15
6 6 5 5 5 5 5 5 4 4 4 5 5 5 5 5 5 5 5 5 6 6 7 7 7 7 8 9 9 9 10 11 11 12 12 13 13 14 15 15 15 15 15
7 7 7 6 6 6 6 5 5 5 5 5 5 5 5 5 6 6 6 7 7 8 8 8 8 8 9 9 10 11 11 12 13 13 13 14 15 15 16 16 16 16 17
9 8 8 8 7 7 7 7 6 6 6 6 6 6 6 6 7 7 7 7 8 9 9 9 9 10 10 11 12 13 13 13 13 14 15 15 15 16 16 17 17 18 18
10 9 9 9 9 8 8 8 8 7 7 7 7 7 7 7 7 8 8 8 9 10 10 11 11 12 12 13 13 14 14 14 14 14 15 16 16 17 17 18 19 20 20
11 10 10 10 10 10 9 9 8 8 8 8 8 8 9 9 9 9 10 10 11 11 11 12 12 13 13 14 14 15 15 15 16 16 17 17 18 18 19 20 20 21 22
13 12 12 11 10 10 10 9 9 9 9 9 10 10 10 10 11 11 12 12 12 12 12 13 13 13 13 14 15 15 16 16 17 17 18 19 20 20 21 22 22 23 24
14 14 13 13 12 12 11 11 11 11 11 11 11 11 12 11 12 13 13 13 13 13 14 14 14 14 15 16 16 17 18 18 19 19 20 21 22 23 23 24 24 25 25
16 15 15 14 13 13 13 13 13 12 12 12 12 12 12 13 13 13 14 14 14 15 15 15 16 17 17 18 19 19 20 21 21 21 22 23 24 25 26 26 27 27 28
16 16 16 15 15 14 14 14 14 13 13 13 14 14 14 14 15 15 15 15 16 16 17 17 18 19 20 20 21 22 22 23 23 24 24 25 25 26 28 29 29 30 30
18 18 17 17 16 16 16 16 15 14 14 14 15 15 16 16 16 16 17 17 17 18 19 19 20 21 22 22 23 23 24 25 25 26 26 27 28 29 29 30 31 32 33

GEFSMA_500_meanwind_204.txt.gz
Wind_Speed
5 5 5 5 5 6 6 6 6 6 6 6 7 7 7 7 8 9 9 10 10 11 11 11 11 11 11 11 11 12 13 13 13 13 13 13 13 14 15 16 16 16 15
4 4 4 4 4 5 5 5 5 5 5 6 6 6 7 7 7 8 8 8 8 9 10 10 10 10 10 10 11 11 12 12 12 11 11 11 11 12 13 15 16 16 15
4 4 4 4 4 4 4 4 4 4 5 5 5 5 6 6 6 7 7 7 8 8 9 9 9 10 10 10 11 11 11 11 11 11 11 11 11 11 12 14 14 15 15
4 4 4 4 4 4 4 4 3 3 4 4 4 5 5 6 6 7 7 8 8 8 9 9 9 10 10 10 11 11 11 12 11 11 11 11 11 11 12 12 13 14 14
4 4 3 3 3 3 3 3 3 4 3 3 4 4 5 5 6 7 7 7 8 8 9 9 9 9 9 9 9 10 10 11 10 10 11 11 11 11 12 12 12 13 14
4 4 3 3 3 2 2 3 3 3 3 3 3 3 4 4 4 5 6 6 7 7 8 8 9 10 10 9 9 9 9 9 9 10 10 10 10 11 11 12 12 13 13
4 4 3 3 3 2 3 2 3 3 3 3 3 3 3 3 3 4 4 4 6 6 6 7 8 9 9 9 9 9 9 10 10 10 9 10 11 11 11 11 12 12 13
4 3 3 3 2 2 2 2 3 3 3 3 3 3 3 3 3 4 4 4 5 6 6 7 8 9 9 8 8 8 9 9 9 9 9 9 10 11 11 11 11 12 12
4 3 3 3 3 3 2 2 3 3 3 3 3 3 4 4 4 4 5 5 5 7 7 7 7 8 8 8 8 7 8 8 8 8 8 9 9 10 10 11 12 13 14
4 3 3 3 4 3 3 3 4 3 3 4 4 4 4 5 5 5 6 6 5 6 6 7 7 7 7 8 8 7 7 7 7 8 9 9 10 10 10 11 11 13 13
4 3 3 3 4 4 4 4 4 4 4 4 5 5 5 5 6 6 6 6 6 6 7 7 7 8 8 8 7 7 7 7 7 8 8 9 9 10 10 11 11 12 12
4 3 3 4 4 3 4 4 4 4 4 4 5 5 6 5 6 6 7 7 7 7 7 8 8 8 7 7 7 7 7 7 8 8 9 9 10 11 10 10 10 11 12
5 4 4 4 4 4 4 3 3 4 4 4 5 5 5 5 5 6 6 7 7 7 8 8 8 7 7 7 7 8 8 8 9 10 11 11 12 12 12 12 12 12 13
5 5 5 5 5 4 4 4 4 4 4 4 4 4 5 5 5 5 5 6 6 6 6 7 7 6 6 7 7 8 8 9 9 10 11 12 12 12 12 12 12 12 13
5 5 5 6 5 5 5 5 5 5 5 5 5 5 5 5 5 4 5 5 5 5 5 5 6 6 6 6 7 7 8 9 9 10 11 12 12 12 12 12 13 13 13
6 6 6 6 6 6 5 5 6 6 6 6 6 6 5 5 4 4 5 5 5 5 5 6 6 6 6 7 8 8 9 9 10 11 11 12 12 13 13 13 14 14 15
7 7 7 6 6 6 6 6 6 6 6 6 6 6 5 5 5 5 5 6 6 6 6 6 7 7 7 8 8 9 10 10 11 12 12 12 13 13 13 14 15 15 16
8 8 7 7 7 7 7 7 7 7 6 6 6 6 5 5 6 6 6 6 6 7 7 8 8 8 9 10 10 11 11 11 12 13 13 13 14 14 15 15 16 16 17
9 8 8 9 8 8 8 8 7 7 6 6 6 6 6 6 6 6 7 7 8 8 8 9 9 9 10 10 11 11 12 13 14 14 14 15 16 16 16 17 17 18 18
10 10 10 10 9 9 9 9 9 8 7 7 7 7 7 7 7 7 8 8 9 9 10 10 10 10 10 11 11 12 13 14 15 15 16 16 17 18 18 18 19 19 20
12 12 11 11 11 11 11 10 10 10 9 9 9 9 8 8 9 9 9 9 9 10 10 10 11 11 12 12 13 13 14 15 16 16 17 17 18 19 19 20 21 21 22
14 13 13 13 12 12 12 12 11 11 11 10 10 10 10 10 10 10 10 10 10 10 11 12 12 13 14 14 15 16 16 17 17 18 19 19 20 20 21 22 22 23 24
15 15 15 14 14 13 13 13 12 12 11 11 11 11 11 11 12 12 12 12 12 13 13 14 14 15 15 16 17 18 18 19 20 20 21 21 22 22 23 23 24 24 25
17 16 16 16 15 15 14 14 14 13 13 13 13 13 13 13 13 13 13 14 14 15 15 16 16 17 18 19 19 20 21 21 22 22 23 23 23 24 24 25 25 26 27
19 18 18 17 17 17 16 16 15 15 14 14 15 15 15 15 15 15 16 16 16 17 17 18 19 19 20 20 21 21 22 23 23 23 23 24 25 25 26 27 27 28 29
20 20 19 18 18 18 17 17 17 16 16 16 16 16 15 15 16 16 17 18 18 19 19 20 20 21 21 21 22 23 23 24 24 24 24 25 26 27 27 28 29 29 30